Weather Roundup
Issued by NWS Corpus Christi, TX

Home | Current Version | Previous Version | Text Only | Print | Product List | Glossary Off
Versions: 1 2 3 4 5 6 7 8 9 10 11 12 13 14 15 16 17 18 19 20 21 22 23 24 25 26 27 28 29 30 31 32 33 34 35 36 37 38 39 40 41 42 43 44 45 46 47 48 49 50

000
ASUS44 KCRP 242010
HRRCRP

SOUTH TEXAS REGIONAL WEATHER ROUNDUP
NATIONAL WEATHER SERVICE CORPUS CHRISTI TX
300 PM CDT SUN SEP 24 2017


TXZ229>244-242100-
...CORPUS CHRISTI AREA OBSERVATIONS...

CITY           SKY/WX    TMP DP  RH WIND       PRES   REMARKS
CORPUS CHRISTI MOSUNNY   92  72  51 E16G23    29.80F HX  99
NAS CORPUS CHR MOSUNNY   90  75  61 SE16      29.80F HX 100
ROCKPORT       SUNNY     88  76  67 SE13      29.81F HX  99
KINGSVILLE NAS PTSUNNY   91  73  55 SE13G23   29.78F HX  99
ALICE          LGT RAIN  84  76  76 S12       29.78F HX  93
$$

...VICTORIA AREA OBSERVATIONS...

CITY           SKY/WX    TMP DP  RH WIND       PRES   REMARKS
PORT LAVACA    CLOUDY    83  70  64 SE14      29.84F
VICTORIA       CLOUDY    78  72  81 MISG      29.84F
BEEVILLE       FAIR      95  49  21 SE13      29.80F HX  92
PLEASANTON     PTSUNNY   93  65  40 SE10G17   29.81F HX  95
SAN ANTONIO    PTSUNNY   82  72  71 E7        29.84F
$$

...LAREDO AREA OBSERVATIONS...

CITY           SKY/WX    TMP DP  RH WIND       PRES   REMARKS
LAREDO         MOSUNNY   96  67  38 SE10G18   29.75F HX 100
COTULLA        MOSUNNY   95  62  33 SE12G21   29.77F HX  96
DEL RIO        CLOUDY    87  69  54 SE7       29.79F HX  91
MCALLEN        PTSUNNY   94  69  44 SE13      29.75F HX  99
HEBBRONVILLE   MOSUNNY   94  62  34 S10G17    29.78F HX  94
$$

...OTHER TEXAS OBSERVATIONS...

CITY           SKY/WX    TMP DP  RH WIND       PRES   REMARKS
BROWNSVILLE    SUNNY     91  72  53 SE15      29.78F HX  98
HOUSTON        MOSUNNY   91  69  48 E8        29.86F HX  96
COL. STATION   MOSUNNY   90  69  50 E13       29.86F HX  94
AUSTIN         LGT RAIN  86  71  60 S16       29.84F HX  91
WACO           PTSUNNY   93  65  39 SE12      29.86F HX  95
FORT WORTH     MOSUNNY   92  63  38 SE9G22    29.86F HX  93
WICHITA FALLS  CLOUDY    87  63  44 SE12G23   29.85F
LUBBOCK        CLOUDY    74  66  76 S14       29.90F
EL PASO        MOSUNNY   86  43  22 S13       29.86F
$$

...MARINE OBSERVATIONS...

STATION/POSITION TIME  SKY/WX   TEMP    WIND        PRES    VSBY  WAVE   SWELL
                                AIR SEA DIR/SP/G                  HT/PER HT/PER
                 (UTC)          (F)     (DEG/KT/KT) (MB)    (MI)  (FT/S) (FT/S)
PORT ARANSAS     NOT AVBL
BUOY 90 E PORT A 1950            83 84   80/ 10/ 14 1010.4F         3/ 6   2/ 6
BUOY 200 E PT IS 1950            83 85  110/  8/ 10 1010.2F         2/ 5   2/ 5
BUOY 15 E GALVES 1850            83 83  110/ 10/ 12 1012.1          2/ 4   2/ 5
$$




USA.gov is the U.S. government's official web portal to all federal, state and local government web resources and services.